This demonstration page uses our WeatherBlox Daily Observations layout. Learn more.

Left ArrowRight Arrow

53.62937, 11.41316

Hourly Observations for October 11, 2015

Temp ( °F °C ) Dew Point ( °F °C ) Humidity (%) Winds ( mph kmh ) Pressure ( in mb ) Visibility ( mi km ) Precip ( " mm )
6:20 am 06:20 Mostly Clear 27 -3 27 -3 100 100 ENE 2 4 30.27 1025 7 11 N/A
6:50 am 06:50 Mostly Clear 27 -3 25 -4 93 93 VRB 1 2 30.27 1025 7 11 N/A
7:20 am 07:20 Mostly Clear 27 -3 25 -4 93 93 NNE 1 2 30.27 1025 7 11 N/A
7:50 am 07:50 Mostly Sunny 27 -3 25 -4 93 93 NNW 1 2 30.27 1025 7 11 N/A
8:20 am 08:20 Mostly Sunny 27 -3 25 -4 93 93 WSW 1 2 30.27 1025 7 11 N/A
8:50 am 08:50 Mostly Sunny 30 -1 30 -1 100 100 Calm 30.27 1025 7 11 N/A
9:20 am 09:20 Mostly Sunny 34 1 32 0 93 93 VRB 1 2 30.27 1025 7 11 N/A
9:50 am 09:50 Mostly Sunny 41 5 32 0 70 70 VRB 2 4 30.30 1026 7 11 N/A
10:20 am 10:20 Mostly Sunny 43 6 32 0 66 66 ENE 10 17 30.30 1026 7 11 N/A
10:50 am 10:50 Mostly Sunny 45 7 32 0 61 61 ENE 10 17 30.30 1026 7 11 N/A
11:20 am 11:20 Mostly Sunny 46 8 30 -1 53 53 E 17 28 30.30 1026 7 11 N/A
11:50 am 11:50 Mostly Sunny 46 8 28 -2 50 50 E 16 26 30.30 1026 7 11 N/A
12:20 pm 12:20 Mostly Sunny 48 9 30 -1 50 50 E 17 28 30.30 1026 7 11 N/A
12:50 pm 12:50 Mostly Sunny 48 9 30 -1 50 50 E 17 28 30.30 1026 7 11 N/A
1:20 pm 13:20 Mostly Sunny 48 9 30 -1 50 50 ENE 21 33 30.27 1025 7 11 N/A
1:50 pm 13:50 Mostly Sunny 50 10 32 0 50 50 E 18 30 30.27 1025 7 11 N/A
2:20 pm 14:20 Mostly Sunny 50 10 32 0 50 50 ENE 18 30 30.27 1025 7 11 N/A
2:50 pm 14:50 Mostly Sunny 48 9 30 -1 50 50 ENE 18 30 30.24 1024 7 11 N/A
3:09 pm 15:09 Mostly Sunny 50 10 32 0 50 50 ENE 18 30 30.24 1024 7 11 N/A
3:20 pm 15:20 Mostly Sunny 50 10 32 0 50 50 ENE 18 30 30.24 1024 7 11 N/A
3:50 pm 15:50 Mostly Sunny 50 10 32 0 50 50 ENE 20 31 30.24 1024 7 11 N/A
4:20 pm 16:20 Mostly Sunny 50 10 32 0 50 50 ENE 18 30 30.24 1024 7 11 N/A
4:50 pm 16:50 Mostly Sunny 50 10 32 0 50 50 E 17 28 30.21 1023 7 11 N/A
5:20 pm 17:20 Mostly Sunny 48 9 32 0 54 54 ENE 18 30 30.21 1023 7 11 N/A
5:50 pm 17:50 Mostly Sunny 48 9 32 0 54 54 ENE 15 24 30.21 1023 7 11 N/A
6:20 pm 18:20 Mostly Sunny 46 8 34 1 62 62 ENE 13 20 30.21 1023 7 11 N/A
6:50 pm 18:50 Mostly Clear 45 7 34 1 66 66 ENE 12 19 30.21 1023 7 11 N/A

Powered by AerisWeather